Regional Weather Roundup
Issued by NWS

Home | Current Version | Previous Version | Graphics & Text | Print | Product List | Glossary On
Versions: 1 2 3 4 5 6 7 8 9 10 11 12 13 14 15 16 17 18 19 20 21 22 23 24 25 26 27 28 29 30 31 32 33 34 35 36 37 38 39 40 41 42 43 44 45 46 47 48 49 50
000
ASUS43 KIND 272009
RWRIN

WEATHER ROUNDUP FOR INDIANA
NATIONAL WEATHER SERVICE INDIANAPOLIS IN
400 PM EDT THU AUG 27 2015

NOTE: "FAIR" INDICATES FEW OR NO CLOUDS BELOW 12,000 FEET WITH NO
SIGNIFICANT WEATHER AND/OR OBSTRUCTIONS TO VISIBILITY.

* - STATION DOES NOT REPORT WEATHER SUCH AS PRECIPITATION OR FOG.

+ - STATION NOT QUALITY CONTROLLED BY THE NATIONAL WEATHER SERVICE.
    USE DATA WITH CAUTION...ESPECIALLY DEWPOINT AND RELATIVE
    HUMIDITY OBSERVATIONS.

INZ001>003-010>013-019-020-272100-
NORTHWEST INDIANA

CITY           SKY/WX    TMP DP  RH WIND       PRES   REMARKS
GARY /AIRPORT/ PTSUNNY   70  55  60 NE6       30.17F
KNOX *+        MOSUNNY   72  52  49 CALM      30.16F
LA PORTE +     CLOUDY    70  56  61 CALM      30.18F
MICHIGAN CITY+ CLOUDY    68  54  60 CALM      30.18F
MONTICELLO +   CLOUDY    72  58  62 CALM      30.16F
RENSSELAER +   SUNNY     73  55  53 CALM      30.15F
VALPARAISO     MOSUNNY   72  56  57 VRB3      30.17F

$$

LMZ046-743>745-272100-
SOUTHERN LAKE MICHIGAN

STATION/POSITION TIME  TEMP    WIND        PRES    WAVE
                       AIR SEA DIR/SP/G            HT
                 (UTC) (F)     (DEG/KT/KT) (MB)    (FT)
BURNS HARBOR     1900   66      10/  4/  5 1022.7F
MICHIGAN CITY    1900   68     330/  5/  6   N/A
5NW MICH CITY    2000   67 71   20/  2/  4   N/A     1

$$

INZ004-005-014>016-021>024-272100-
NORTH CENTRAL INDIANA

CITY           SKY/WX    TMP DP  RH WIND       PRES   REMARKS
ELKHART        PTSUNNY   68  54  60 CALM      30.19S
GOSHEN         CLOUDY    68  54  60 CALM      30.18S
LOGANSPORT +   CLOUDY    73  50  43 CALM      30.17F
PERU/GRISSOM   PTSUNNY   73  57  57 W5        30.16S
ROCHESTER +    SUNNY     75  55  50 SE5       30.17F
SOUTH BEND     PTSUNNY   69  54  58 NW5       30.18F
WARSAW +       CLOUDY    70  54  56 CALM      30.18S

$$

INZ006>009-017-018-025>027-272100-
NORTHEAST INDIANA

CITY           SKY/WX    TMP DP  RH WIND       PRES   REMARKS
ANGOLA *+      CLOUDY    73  66  78 VRB3      30.18S
AUBURN +       CLOUDY    70  54  56 NW3       30.18F
FORT WAYNE     PTSUNNY   72  56  57 VRB3      30.18S
HUNTINGTON +   CLOUDY    70  52  53 CALM      30.17S

$$

INZ028-029-035-036-043>045-051>053-272100-
WEST CENTRAL INDIANA

CITY           SKY/WX    TMP DP  RH WIND       PRES   REMARKS
CRAWFORDSVL +  MOSUNNY   75  53  46 W3        30.14F
GREENCASTLE +  MOSUNNY   77  52  41 CALM      30.15F
LAFAYETTE      MOSUNNY   74  56  53 CALM      30.14F
TERRE HAUTE    PTSUNNY   82  57  42 NE7       30.13F

$$

INZ030>032-037>040-046>048-054>057-064-065-272100-
CENTRAL INDIANA

CITY           SKY/WX    TMP DP  RH WIND       PRES   REMARKS
ANDERSON       PTSUNNY   75  50  41 CALM      30.17R
COLUMBUS       MOSUNNY   75  50  41 CALM      30.15R
FRANKFORT +    PTSUNNY   75  58  57 CALM      30.18S
GREENWOOD *+   PTSUNNY   77  52  41 CALM      30.16
INDIANAPOLIS   PTSUNNY   77  55  46 VRB6      30.14R
-EAGLE CREEK   SUNNY     78  57  48 CALM      30.14S
KOKOMO *+      PTSUNNY   72  57  60 CALM      30.17S
MARION +       MOSUNNY   72  45  38 CALM      30.17S
MT COMFORT *+  SUNNY     77  46  33 CALM      30.16S
SHELBYVILLE    PTSUNNY   77  57  50 CALM      30.15R
ZIONSVILLE +   MOSUNNY   77  56  47 CALM      30.16S

$$

INZ033-034-041-042-049-050-058-059-272100-
EAST CENTRAL INDIANA

CITY           SKY/WX    TMP DP  RH WIND       PRES   REMARKS
MUNCIE         PTSUNNY   71  56  58 SE3       30.16S

$$

INZ060-061-067>069-081>083-085>088-272100-
SOUTHWEST INDIANA

CITY           SKY/WX    TMP DP  RH WIND       PRES   REMARKS
EVANSVILLE     MOSUNNY   80  56  43 E5        30.13F
HUNTINGBURG *+ MOSUNNY   77  57  50 E5        30.14S
WASHINGTON +   MOSUNNY   80  49  34 NE3       30.12F

$$

INZ062-063-066-070>080-084-089>092-272100-
SOUTH CENTRAL AND SOUTHEAST INDIANA

CITY           SKY/WX    TMP DP  RH WIND       PRES   REMARKS
BLOOMINGTON    SUNNY     78  56  46 E7        30.15S
MADISON *+     CLOUDY    77  54  44 CALM      30.16R
NORTH VERNON + CLOUDY    77  54  44 CALM      30.15S
SEYMOUR +      SUNNY     82  55  39 E6        30.14R

$$



USA.gov is the U.S. government's official web portal to all federal, state and local government web resources and services.